Regional Weather Roundup
Issued by NWS

Home | Current Version | Previous Version | Graphics & Text | Print | Product List | Glossary On
Versions: 1 2 3 4 5 6 7 8 9 10 11 12 13 14 15 16 17 18 19 20 21 22 23 24 25 26 27 28 29 30 31 32 33 34 35 36 37 38 39 40 41 42 43 44 45 46 47 48 49 50
000
ASUS43 KIND 242309
RWRIN

WEATHER ROUNDUP FOR INDIANA
NATIONAL WEATHER SERVICE INDIANAPOLIS IN
600 PM EST TUE JAN 24 2017

NOTE: "FAIR" INDICATES FEW OR NO CLOUDS BELOW 12,000 FEET WITH NO
SIGNIFICANT WEATHER AND/OR OBSTRUCTIONS TO VISIBILITY.

* - STATION DOES NOT REPORT WEATHER SUCH AS PRECIPITATION OR FOG.

+ - STATION NOT QUALITY CONTROLLED BY THE NATIONAL WEATHER SERVICE.
    USE DATA WITH CAUTION...ESPECIALLY DEWPOINT AND RELATIVE
    HUMIDITY OBSERVATIONS.

INZ001>003-010>013-019-020-250000-
NORTHWEST INDIANA

CITY           SKY/WX    TMP DP  RH WIND       PRES   REMARKS
GARY /AIRPORT/ CLOUDY    37  32  81 SE7       29.85S
KNOX *+        CLOUDY    36  19  51 CALM      29.84S
LA PORTE +     CLOUDY    35  32  88 CALM      29.85R
MICHIGAN CITY+ CLOUDY    36  36 100 CALM      29.85S
MONTICELLO +   CLOUDY    38  33  82 CALM      29.84F
RENSSELAER +     N/A     37  36  93 S6        29.85R
VALPARAISO     CLOUDY    38  33  82 NE3       29.84R

$$

LMZ046-743>745-250000-
SOUTHERN LAKE MICHIGAN

STATION/POSITION TIME  TEMP    WIND        PRES    WAVE
                       AIR SEA DIR/SP/G            HT
                 (UTC) (F)     (DEG/KT/KT) (MB)    (FT)
BURNS HARBOR     2240   34      70/  6/  7 1011.5S

$$

INZ004-005-014>016-021>024-250000-
NORTH CENTRAL INDIANA

CITY           SKY/WX    TMP DP  RH WIND       PRES   REMARKS
ELKHART        CLOUDY    37  32  81 NW5       29.84F
GOSHEN         CLOUDY    37  32  82 W5        29.84F
LOGANSPORT +   CLOUDY    37  34  87 SW5       29.85F
ROCHESTER +    CLOUDY    39  34  81 CALM      29.84S
SOUTH BEND     CLOUDY    35  32  88 N6        29.84F WCI  30
WARSAW +       CLOUDY    36  30  80 CALM      29.84S

$$

INZ006>009-017-018-025>027-250000-
NORTHEAST INDIANA

CITY           SKY/WX    TMP DP  RH WIND       PRES   REMARKS
ANGOLA *+      CLOUDY    37  28  70 NW7       29.82F
AUBURN +       CLOUDY    37  32  81 NW7       29.83F
FORT WAYNE     CLOUDY    39  33  79 NW5       29.84F
HUNTINGTON +   CLOUDY    38  33  82 N3        29.84S
KENDALLVILLE + CLOUDY    37  33  85 NW6       29.83F

$$

INZ028-029-035-036-043>045-051>053-250000-
WEST CENTRAL INDIANA

CITY           SKY/WX    TMP DP  RH WIND       PRES   REMARKS
CRAWFORDSVL +  CLOUDY    37  35  92 S3        29.84F
GREENCASTLE +  CLOUDY    39  32  75 CALM      29.85S
LAFAYETTE      CLOUDY    38  33  82 E7        29.83F
TERRE HAUTE    CLOUDY    41  34  76 E7        29.83F

$$

INZ030>032-037>040-046>048-054>057-064-065-250000-
CENTRAL INDIANA

CITY           SKY/WX    TMP DP  RH WIND       PRES   REMARKS
CP ATTERBURY + CLOUDY    41  32  70 E3        29.87R
COLUMBUS       MOCLDY    39  37  93 NE6       29.86F
FISHERS *+     CLOUDY    39  36  87 CALM      29.85F
FRANKFORT +    CLOUDY    41  36  81 CALM      29.86F
GREENWOOD *+   CLOUDY    41  35  77 CALM      29.86S
INDIANAPOLIS   CLOUDY    40  33  76 S3        29.84F
-EAGLE CREEK   CLOUDY    41  32  70 CALM      29.84F
KOKOMO +       CLOUDY    39  35  86 W3        29.85S
MARION +       CLOUDY    39  34  81 W5        29.86R
MT COMFORT *+  CLOUDY    39  34  81 CALM      29.86F
SHELBYVILLE    CLOUDY    42  33  70 SW3       29.85F
ZIONSVILLE +   CLOUDY    38  34  84 SW3       29.85F

$$

INZ033-034-041-042-049-050-058-059-250000-
EAST CENTRAL INDIANA

CITY           SKY/WX    TMP DP  RH WIND       PRES   REMARKS
MUNCIE         CLOUDY    40  33  76 W5        29.86R

$$

INZ060-061-067>069-081>083-085>088-250000-
SOUTHWEST INDIANA

CITY           SKY/WX    TMP DP  RH WIND       PRES   REMARKS
EVANSVILLE     CLEAR     44  35  70 E6        29.84F
HUNTINGBURG *+ PTCLDY    41  34  75 SE6       29.86F
WASHINGTON +   CLOUDY    42  34  72 SE7       29.85S

$$

INZ062-063-066-070>080-084-089>092-250000-
SOUTH CENTRAL AND SOUTHEAST INDIANA

CITY           SKY/WX    TMP DP  RH WIND       PRES   REMARKS
BEDFORD +      CLOUDY    43  34  70 CALM      29.85F
BLOOMINGTON    CLOUDY    42  33  70 SE5       29.84F
MADISON *+     PTCLDY    43  32  65 CALM      29.88F
NORTH VERNON + CLOUDY    43  34  70 CALM      29.87S
SEYMOUR +      CLOUDY    43  36  75 SW3       29.87F

$$




USA.gov is the U.S. government's official web portal to all federal, state and local government web resources and services.